| time (UTC) | temp F | wind direction | speed MPH | gust MPH | rain 1hr in | rain 24hr in | rain mn in | humidity % | barometer mb |
| 20260510234003 | 49 | 94 | 7.0 | 12.0 | 0.00 | 0.00 | 0.00 | 59 | 1024.8 |
| 20260510233003 | 50 | 92 | 7.0 | 10.0 | 0.00 | 0.00 | 0.00 | 58 | 1024.9 |
| 20260510232003 | 50 | 90 | 8.0 | 12.0 | 0.00 | 0.00 | 0.00 | 57 | 1024.7 |
| 20260510231003 | 50 | 74 | 6.0 | 10.0 | 0.00 | 0.00 | 0.00 | 58 | 1024.8 |
| 20260510230003 | 51 | 80 | 8.0 | 15.0 | 0.00 | 0.00 | 0.00 | 56 | 1024.5 |
| 20260510225002 | 52 | 94 | 7.0 | 17.0 | 0.00 | 0.00 | 0.00 | 55 | 1024.5 |
| 20260510223003 | 54 | 16 | 5.0 | 12.0 | 0.00 | 0.00 | 0.00 | 45 | 1024.2 |
| 20260510220004 | 55 | 41 | 6.0 | 12.0 | 0.00 | 0.00 | 0.00 | 42 | 1024.1 |
| 20260510215003 | 55 | 52 | 6.0 | 14.0 | 0.00 | 0.00 | 0.00 | 42 | 1023.7 |
| 20260510213002 | 56 | 31 | 7.0 | 13.0 | 0.00 | 0.00 | 0.00 | 39 | 1023.5 |
| 20260510212002 | 56 | 51 | 6.0 | 16.0 | 0.00 | 0.00 | 0.00 | 41 | 1023.2 |
| 20260510211002 | 57 | 305 | 8.0 | 17.0 | 0.00 | 0.00 | 0.00 | 33 | 1023.1 |
| 20260510210003 | 56 | 348 | 5.0 | 20.0 | 0.00 | 0.00 | 0.00 | 34 | 1023.0 |
| 20260510205003 | 56 | 337 | 10.0 | 17.0 | 0.00 | 0.00 | 0.00 | 34 | 1023.0 |
| 20260510204003 | 57 | 300 | 8.0 | 17.0 | 0.00 | 0.00 | 0.00 | 34 | 1023.3 |
| 20260510203003 | 57 | 324 | 14.0 | 18.0 | 0.00 | 0.00 | 0.00 | 34 | 1023.3 |
| 20260510202002 | 57 | 331 | 9.0 | 18.0 | 0.00 | 0.00 | 0.00 | 33 | 1023.4 |
| 20260510201002 | 57 | 327 | 11.0 | 21.0 | 0.00 | 0.00 | 0.00 | 34 | 1023.4 |
| 20260510200002 | 56 | 342 | 9.0 | 18.0 | 0.00 | 0.00 | 0.00 | 36 | 1023.2 |
| 20260510195004 | 56 | 309 | 13.0 | 21.0 | 0.00 | 0.00 | 0.00 | 36 | 1023.3 |
| 20260510194003 | 56 | 353 | 9.0 | 18.0 | 0.00 | 0.00 | 0.00 | 35 | 1023.5 |
| 20260510193003 | 57 | 314 | 10.0 | 20.0 | 0.00 | 0.00 | 0.00 | 34 | 1023.3 |
| 20260510192002 | 57 | 248 | 6.0 | 22.0 | 0.00 | 0.00 | 0.00 | 33 | 1023.5 |
| 20260510191003 | 56 | 298 | 14.0 | 20.0 | 0.00 | 0.00 | 0.00 | 34 | 1023.5 |
| 20260510190003 | 57 | 281 | 7.0 | 28.0 | 0.00 | 0.00 | 0.00 | 35 | 1023.3 |
| 20260510185003 | 56 | 289 | 13.0 | 23.0 | 0.00 | 0.00 | 0.00 | 34 | 1023.5 |
| 20260510184002 | 56 | 309 | 11.0 | 18.0 | 0.00 | 0.00 | 0.00 | 34 | 1023.2 |
| 20260510183003 | 56 | 304 | 9.0 | 16.0 | 0.00 | 0.00 | 0.00 | 35 | 1023.3 |
| 20260510181003 | 55 | 301 | 12.0 | 23.0 | 0.00 | 0.00 | 0.00 | 35 | 1023.0 |
| 20260510175003 | 55 | 311 | 11.0 | 22.0 | 0.00 | 0.00 | 0.00 | 38 | 1023.0 |
| 20260510174003 | 55 | 297 | 9.0 | 20.0 | 0.00 | 0.00 | 0.00 | 40 | 1022.8 |
| 20260510173003 | 54 | 303 | 8.0 | 16.0 | 0.00 | 0.00 | 0.00 | 41 | 1022.9 |
| 20260510172003 | 54 | 296 | 6.0 | 22.0 | 0.00 | 0.00 | 0.00 | 39 | 1023.0 |
| 20260510171003 | 54 | 308 | 9.0 | 20.0 | 0.00 | 0.00 | 0.00 | 38 | 1022.8 |
| 20260510170002 | 55 | 314 | 10.0 | 24.0 | 0.00 | 0.00 | 0.00 | 38 | 1022.7 |
| 20260510165003 | 54 | 288 | 8.0 | 16.0 | 0.00 | 0.00 | 0.00 | 41 | 1023.0 |
| 20260510164003 | 53 | 294 | 10.0 | 21.0 | 0.00 | 0.00 | 0.00 | 41 | 1023.2 |
| 20260510163004 | 54 | 272 | 8.0 | 18.0 | 0.00 | 0.00 | 0.00 | 40 | 1023.0 |
| 20260510162004 | 54 | 335 | 6.0 | 20.0 | 0.00 | 0.00 | 0.00 | 43 | 1023.1 |
| 20260510161004 | 54 | 249 | 8.0 | 20.0 | 0.00 | 0.00 | 0.00 | 42 | 1023.1 |
| 20260510160003 | 55 | 296 | 10.0 | 16.0 | 0.00 | 0.00 | 0.00 | 42 | 1022.9 |
| 20260510155003 | 55 | 248 | 9.0 | 21.0 | 0.00 | 0.00 | 0.00 | 41 | 1023.0 |
| 20260510154002 | 53 | 279 | 9.0 | 21.0 | 0.00 | 0.00 | 0.00 | 42 | 1023.1 |
| 20260510152003 | 54 | 258 | 7.0 | 21.0 | 0.00 | 0.00 | 0.00 | 43 | 1023.3 |
| 20260510151002 | 53 | 212 | 5.0 | 18.0 | 0.00 | 0.00 | 0.00 | 45 | 1023.1 |
| 20260510150003 | 52 | 274 | 7.0 | 13.0 | 0.00 | 0.00 | 0.00 | 48 | 1023.4 |
| 20260510144003 | 50 | 258 | 9.0 | 15.0 | 0.00 | 0.00 | 0.00 | 51 | 1023.4 |
| 20260510142003 | 49 | 189 | 5.0 | 9.0 | 0.00 | 0.00 | 0.00 | 52 | 1023.4 |
| 20260510140003 | 48 | 189 | 2.0 | 7.0 | 0.00 | 0.00 | 0.00 | 55 | 1023.1 |
| 20260510135003 | 48 | 287 | 3.0 | 7.0 | 0.00 | 0.00 | 0.00 | 56 | 1022.9 |
| 20260510131002 | 47 | 207 | 5.0 | 10.0 | 0.00 | 0.00 | 0.00 | 57 | 1022.8 |
| 20260510125003 | 45 | 169 | 3.0 | 7.0 | 0.00 | 0.00 | 0.00 | 60 | 1022.8 |
| 20260510124003 | 44 | 172 | 4.0 | 6.0 | 0.00 | 0.00 | 0.00 | 62 | 1022.6 |
| 20260510123003 | 43 | 154 | 4.0 | 8.0 | 0.00 | 0.00 | 0.00 | 65 | 1022.2 |
| 20260510122003 | 42 | 162 | 5.0 | 6.0 | 0.00 | 0.00 | 0.00 | 64 | 1022.4 |
| 20260510121003 | 42 | 145 | 4.0 | 6.0 | 0.00 | 0.00 | 0.00 | 65 | 1022.4 |
| 20260510120003 | 41 | 174 | 3.0 | 6.0 | 0.00 | 0.00 | 0.00 | 67 | 1022.6 |
| 20260510115003 | 39 | 167 | 3.0 | 5.0 | 0.00 | 0.00 | 0.00 | 69 | 1022.3 |
| 20260510113003 | 38 | 180 | 3.0 | 6.0 | 0.00 | 0.00 | 0.00 | 70 | 1022.0 |
| 20260510112003 | 38 | 147 | 3.0 | 6.0 | 0.00 | 0.00 | 0.00 | 72 | 1021.9 |
| 20260510110003 | 37 | 154 | 3.0 | 6.0 | 0.00 | 0.00 | 0.00 | 72 | 1021.6 |
| 20260510105002 | 37 | 152 | 2.0 | 9.0 | 0.00 | 0.00 | 0.00 | 71 | 1021.5 |
| 20260510104003 | 37 | 173 | 2.0 | 5.0 | 0.00 | 0.00 | 0.00 | 73 | 1021.3 |
| 20260510103002 | 36 | 139 | 2.0 | 3.0 | 0.00 | 0.00 | 0.00 | 74 | 1021.3 |
| 20260510102002 | 36 | 132 | 1.0 | 5.0 | 0.00 | 0.00 | 0.00 | 74 | 1021.1 |
| 20260510101003 | 36 | 113 | 2.0 | 3.0 | 0.00 | 0.00 | 0.00 | 74 | 1020.9 |
| 20260510100003 | 37 | 153 | 3.0 | 5.0 | 0.00 | 0.00 | 0.00 | 73 | 1020.9 |
| 20260510095003 | 37 | 118 | 2.0 | 5.0 | 0.00 | 0.00 | 0.00 | 72 | 1020.7 |
| 20260510094002 | 37 | 155 | 2.0 | 7.0 | 0.00 | 0.00 | 0.00 | 72 | 1020.6 |
| 20260510093003 | 37 | 134 | 3.0 | 3.0 | 0.00 | 0.00 | 0.00 | 72 | 1020.5 |
| 20260510090003 | 38 | 146 | 2.0 | 3.0 | 0.00 | 0.00 | 0.00 | 70 | 1020.2 |
| 20260510085003 | 38 | 147 | 1.0 | 3.0 | 0.00 | 0.00 | 0.00 | 69 | 1020.2 |
| 20260510084003 | 38 | 134 | 1.0 | 5.0 | 0.00 | 0.00 | 0.00 | 69 | 1019.8 |
| 20260510082003 | 38 | 152 | 3.0 | 5.0 | 0.00 | 0.00 | 0.00 | 70 | 1019.4 |
| 20260510081003 | 38 | 152 | 2.0 | 3.0 | 0.00 | 0.00 | 0.00 | 70 | 1019.5 |
| 20260510074003 | 39 | 143 | 2.0 | 2.0 | 0.00 | 0.00 | 0.00 | 67 | 1019.1 |
| 20260510073002 | 40 | 149 | 2.0 | 2.0 | 0.00 | 0.00 | 0.00 | 64 | 1019.1 |
| 20260510072003 | 41 | 107 | 0.0 | 2.0 | 0.00 | 0.00 | 0.00 | 62 | 1019.0 |
| 20260510070003 | 40 | 131 | 1.0 | 2.0 | 0.00 | 0.00 | 0.00 | 61 | 1018.7 |
| 20260510065003 | 40 | 129 | 2.0 | 3.0 | 0.00 | 0.00 | 0.00 | 60 | 1018.5 |
| 20260510064003 | 41 | 108 | 3.0 | 3.0 | 0.00 | 0.00 | 0.00 | 56 | 1018.6 |
| 20260510063003 | 41 | 132 | 2.0 | 3.0 | 0.00 | 0.00 | 0.00 | 55 | 1018.6 |
| 20260510062003 | 42 | 126 | 0.0 | 2.0 | 0.00 | 0.00 | 0.00 | 51 | 1018.5 |
| 20260510061003 | 43 | 106 | 1.0 | 3.0 | 0.00 | 0.00 | 0.00 | 51 | 1018.5 |
| 20260510055003 | 44 | 23 | 2.0 | 3.0 | 0.00 | 0.00 | 0.00 | 45 | 1018.3 |
| 20260510054003 | 45 | 39 | 2.0 | 8.0 | 0.00 | 0.00 | 0.00 | 44 | 1018.3 |
| 20260510053003 | 45 | 36 | 3.0 | 7.0 | 0.00 | 0.00 | 0.00 | 44 | 1018.1 |
| 20260510052002 | 45 | 42 | 2.0 | 5.0 | 0.00 | 0.00 | 0.00 | 45 | 1018.1 |
| 20260510051003 | 45 | 98 | 2.0 | 5.0 | 0.00 | 0.00 | 0.00 | 44 | 1017.6 |
| 20260510050002 | 46 | 49 | 3.0 | 7.0 | 0.00 | 0.00 | 0.00 | 43 | 1017.6 |
| 20260510045003 | 46 | 68 | 2.0 | 7.0 | 0.00 | 0.00 | 0.00 | 44 | 1017.3 |
| 20260510044003 | 46 | 34 | 3.0 | 6.0 | 0.00 | 0.00 | 0.00 | 43 | 1017.6 |
| 20260510043002 | 46 | 41 | 3.0 | 5.0 | 0.00 | 0.00 | 0.00 | 44 | 1017.1 |
| 20260510042002 | 47 | 85 | 3.0 | 6.0 | 0.00 | 0.00 | 0.00 | 42 | 1017.0 |
| 20260510040003 | 48 | 40 | 3.0 | 7.0 | 0.00 | 0.00 | 0.00 | 40 | 1016.9 |
| 20260510035003 | 48 | 29 | 3.0 | 7.0 | 0.00 | 0.00 | 0.00 | 39 | 1016.7 |
| 20260510034002 | 49 | 50 | 5.0 | 8.0 | 0.00 | 0.00 | 0.00 | 38 | 1016.8 |
| 20260510033003 | 49 | 36 | 3.0 | 9.0 | 0.00 | 0.00 | 0.00 | 39 | 1016.6 |
| 20260510032003 | 49 | 45 | 6.0 | 9.0 | 0.00 | 0.00 | 0.00 | 38 | 1016.5 |
| 20260510031003 | 49 | 36 | 5.0 | 7.0 | 0.00 | 0.00 | 0.00 | 38 | 1016.4 |
| 20260510030003 | 50 | 40 | 5.0 | 14.0 | 0.00 | 0.00 | 0.00 | 38 | 1016.5 |
| 20260510025003 | 50 | 358 | 10.0 | 15.0 | 0.00 | 0.00 | 0.00 | 37 | 1016.3 |
| 20260510024003 | 50 | 25 | 5.0 | 14.0 | 0.00 | 0.00 | 0.00 | 39 | 1016.3 |
| 20260510023002 | 51 | 17 | 5.0 | 12.0 | 0.00 | 0.00 | 0.00 | 39 | 1016.1 |
| 20260510022003 | 51 | 13 | 10.0 | 20.0 | 0.00 | 0.00 | 0.00 | 38 | 1016.2 |
| 20260510021003 | 51 | 357 | 9.0 | 20.0 | 0.00 | 0.00 | 0.00 | 38 | 1015.8 |
| 20260510020003 | 52 | 348 | 8.0 | 17.0 | 0.00 | 0.00 | 0.00 | 39 | 1015.5 |
| 20260510015003 | 53 | 313 | 8.0 | 22.0 | 0.00 | 0.00 | 0.00 | 38 | 1015.2 |
| 20260510014003 | 54 | 352 | 7.0 | 18.0 | 0.00 | 0.00 | 0.00 | 37 | 1014.6 |
| 20260510013003 | 54 | 350 | 12.0 | 23.0 | 0.00 | 0.00 | 0.00 | 35 | 1014.1 |
| 20260510012003 | 55 | 9 | 9.0 | 20.0 | 0.00 | 0.00 | 0.00 | 34 | 1013.6 |
| 20260510011003 | 55 | 17 | 7.0 | 15.0 | 0.00 | 0.00 | 0.00 | 34 | 1013.5 |
| 20260510010003 | 56 | 11 | 7.0 | 13.0 | 0.00 | 0.00 | 0.00 | 33 | 1013.2 |
| 20260510005003 | 56 | 345 | 6.0 | 13.0 | 0.00 | 0.00 | 0.00 | 32 | 1012.9 |
| 20260510004003 | 57 | 1 | 6.0 | 17.0 | 0.00 | 0.00 | 0.00 | 31 | 1012.8 |
| 20260510003003 | 58 | 337 | 9.0 | 21.0 | 0.00 | 0.00 | 0.00 | 31 | 1012.5 |
| 20260510002003 | 58 | 338 | 9.0 | 17.0 | 0.00 | 0.00 | 0.00 | 30 | 1012.5 |
| 20260510001003 | 59 | 17 | 6.0 | 18.0 | 0.00 | 0.00 | 0.00 | 31 | 1012.3 |
| 20260510000003 | 59 | 336 | 5.0 | 16.0 | 0.00 | 0.00 | 0.00 | 30 | 1011.9 |
| 20260509235003 | 59 | 317 | 6.0 | 16.0 | 0.00 | 0.00 | 0.00 | 30 | 1011.8 |